Location: Absher
(46.5583°N, 107.9840°W)
Time: 05:22:22
(UTC+00:00)

Tiangong - Pass Details

Date: 06 December 2022
Orbit: 382 x 386 km, 41.5° (Epoch: 05 February)

Event Time Altitude Azimuth Distance (km) Brightness Sun altitude
Rises 02:21:59 0° 264° (W) 2,252 3.0 -29.5°
Reaches altitude 10° 02:24:17 10° 250° (WSW) 1,399 1.5 -29.9°
Enters shadow 02:24:26 11° 248° (WSW) 1,350 1.4 -29.9°
